Location: Unspecified
(43.4354°N, 0.0000°E)
Time: 04:05:25
(UTC+00:00)

Tiros 1 despin weight - Pass Details

Date: 25 June 2019
Orbit: 594 x 643 km, 48.2° (Epoch: 12 October)

Event Time Altitude Azimuth Distance (km) Brightness Sun altitude
Rises 23:06:11 0° 259° (WSW) 2,856 ? -21.9°
Reaches altitude 10° 23:08:31 10° 263° (W) 1,946 ? -22.0°
Maximum altitude 23:12:55 60° 343° (NNW) 685 ? -22.2°
Drops below altitude 10° 23:17:19 10° 65° (ENE) 1,931 ? -22.4°
Sets 23:19:37 0° 69° (ENE) 2,831 ? -22.5°
